Theta_e
311 319 325 328 326 329 331 331 327 328 325 326 327 332 331 332 334 335 335 333 333 332 337 336 336 336 335 336 335 330 323 316 322 327 326 329 328 320 314 313 312 310 309 311 313 314 316 317 317
310 316 325 328 327 329 329 328 330 327 325 326 331 332 332 334 335 334 334 333 334 331 334 336 335 334 335 335 332 326 320 319 318 325 331 332 327 317 316 319 311 309 313 314 315 316 316 317 319
313 322 327 324 325 330 326 327 328 328 328 326 330 331 332 334 333 333 331 333 334 332 333 335 333 331 331 328 326 324 318 320 323 328 326 330 331 318 318 316 311 311 317 315 316 316 317 319 321
314 322 325 328 328 326 325 323 322 324 326 327 330 331 335 334 334 333 331 332 334 333 332 335 334 331 327 324 323 318 315 320 324 327 332 329 330 320 326 313 310 312 317 316 316 317 320 322 323
317 318 322 325 324 325 323 324 324 324 323 325 326 330 335 334 333 333 331 333 334 334 333 334 335 330 325 319 314 311 316 325 326 329 328 329 328 323 317 312 310 314 315 316 317 320 322 322 323
312 318 322 322 320 323 323 324 323 322 323 323 324 332 335 336 335 332 332 333 335 334 335 336 334 330 322 316 311 312 318 327 328 327 328 329 328 317 314 311 310 313 315 317 319 323 323 320 323
307 312 317 317 317 319 322 324 320 320 320 322 323 326 334 336 335 334 334 335 336 336 336 336 333 330 320 315 311 314 317 323 328 327 328 328 327 322 314 311 312 315 317 321 324 324 323 320 320
307 307 311 315 316 317 318 318 318 318 318 319 323 331 333 334 335 335 336 338 337 337 336 335 333 327 319 315 311 312 316 328 328 328 327 328 321 326 312 311 313 316 323 324 327 323 320 321 322
305 303 305 307 312 313 314 308 312 310 316 315 319 330 333 332 334 335 338 338 338 336 335 335 334 326 320 317 312 311 319 322 328 327 328 327 328 325 312 312 314 317 324 325 325 319 318 321 321
303 302 304 306 305 306 306 306 306 308 310 314 319 325 332 334 333 334 336 338 338 336 335 334 334 327 322 318 313 313 316 322 329 326 330 317 328 316 312 313 316 320 324 325 324 319 318 320 321
304 303 303 305 305 306 305 305 306 305 308 316 313 312 315 324 332 333 335 335 337 336 335 334 334 331 324 320 316 313 315 313 317 322 323 311 318 316 313 314 317 321 324 325 323 320 318 320 323
302 303 304 305 305 304 305 305 304 305 305 306 307 307 310 316 325 333 333 334 336 337 335 334 333 331 328 324 321 314 312 313 313 312 315 311 315 315 313 315 318 322 324 323 322 321 319 321 323
301 301 303 302 302 303 304 304 304 304 305 306 306 307 308 309 315 329 333 334 334 336 335 334 333 332 332 329 325 320 314 311 310 310 311 310 315 314 313 315 318 323 324 324 323 323 320 320 320
302 303 302 302 302 302 304 304 304 305 305 305 306 305 305 306 309 319 332 334 333 333 334 333 332 331 331 332 329 327 321 312 310 311 311 312 315 314 314 316 319 324 325 325 325 323 322 320 320
303 302 302 301 301 302 304 302 303 304 305 304 304 305 305 306 307 311 329 331 331 332 333 333 332 329 327 333 331 330 328 317 310 310 311 312 315 317 317 319 322 325 326 326 324 326 324 321 319
303 302 302 300 300 301 301 300 301 303 303 303 304 304 304 305 307 311 322 330 331 333 333 333 331 330 329 330 332 331 330 325 316 309 310 312 315 319 320 322 324 323 325 325 324 324 324 321 318
303 302 302 302 302 302 302 302 302 304 304 303 303 303 304 305 307 312 314 327 330 332 332 332 331 330 330 330 329 330 331 330 327 317 311 312 314 319 319 323 322 325 325 325 324 323 324 322 318
301 303 302 302 302 302 302 302 301 302 302 303 303 303 303 305 307 310 316 324 330 330 332 333 332 331 330 330 329 329 329 330 330 329 326 315 314 319 319 323 324 324 324 324 323 322 322 323 318
303 303 303 302 302 303 303 302 302 301 301 300 301 301 302 303 305 309 315 322 329 330 330 332 331 330 330 330 330 329 329 327 329 329 329 322 317 317 320 324 324 324 324 324 323 322 321 321 317
303 303 303 302 301 302 302 302 301 301 301 301 301 301 301 302 303 306 307 315 325 325 330 330 331 330 330 330 330 329 330 328 328 328 329 327 319 317 323 323 324 323 323 322 323 322 321 320 319
303 302 302 303 303 303 303 302 302 302 301 301 301 301 302 302 303 304 308 309 317 323 328 329 330 330 329 329 329 330 331 329 326 328 328 327 322 319 320 323 323 322 322 322 323 322 321 321 320
302 302 302 302 303 303 302 302 301 302 302 301 301 301 301 302 303 303 305 313 317 322 325 329 328 329 327 329 329 329 328 327 328 327 326 327 323 319 320 321 324 321 323 323 323 322 321 320 321
299 301 302 303 304 303 302 304 302 301 302 301 300 301 301 302 302 303 304 310 320 321 322 320 327 328 328 329 329 329 328 329 329 327 328 327 325 322 324 324 324 322 322 323 324 322 322 321 320
301 302 302 303 305 304 303 304 302 301 302 301 300 301 301 302 303 303 304 306 319 323 322 320 324 328 328 328 328 329 330 330 329 327 327 327 325 323 325 324 322 324 322 324 324 323 322 321 321
301 302 299 297 298 297 302 303 302 301 301 301 301 300 301 302 302 303 304 305 316 322 323 323 327 328 328 328 328 328 329 329 328 327 327 326 325 324 325 324 322 322 324 324 324 323 323 322 321
301 303 303 303 303 304 302 304 304 303 303 304 301 301 301 301 302 303 305 307 309 320 323 323 324 326 327 327 327 328 328 328 327 327 327 327 326 326 326 325 324 323 322 321 324 323 323 322 320
304 301 301 305 303 306 306 306 306 305 304 304 304 301 301 301 302 303 305 306 307 318 321 324 325 325 327 327 327 328 328 327 327 327 327 327 327 326 325 325 324 324 322 320 322 322 322 321 317
302 300 301 304 306 305 306 306 305 301 301 307 306 300 301 302 302 303 304 305 308 313 318 325 325 325 325 325 326 327 326 326 327 327 327 327 327 326 325 326 324 323 321 321 321 320 316 311 306
299 298 298 298 301 307 306 307 300 297 298 310 308 306 304 302 303 304 305 306 309 315 321 325 326 326 325 326 327 327 328 327 326 325 324 323 323 324 324 323 320 319 320 317 311 306 302 300 298
298 296 295 297 302 303 306 306 298 293 301 308 307 308 308 309 310 310 312 315 315 319 323 326 326 325 324 325 326 326 326 326 326 324 322 321 317 315 315 313 315 317 309 304 300 296 296 296 298
Wind_Speed
14 10 9 5 1 2 6 7 3 11 5 9 18 6 6 4 6 4 6 22 19 32 36 35 33 30 27 25 23 20 21 24 24 22 22 22 20 18 18 18 17 17 18 18 19 18 18 17 17
9 8 6 3 3 8 9 6 11 15 15 15 11 4 4 3 7 11 20 19 21 31 36 36 33 32 30 27 23 22 23 23 23 23 22 21 20 18 18 17 18 18 18 18 18 17 16 17 17
6 5 3 3 4 19 8 9 14 20 21 15 11 9 7 7 12 13 10 20 25 29 36 36 33 30 28 25 24 23 24 23 21 23 21 22 21 20 20 17 18 18 17 17 16 16 17 17 17
5 4 6 7 22 10 15 4 10 14 16 18 13 5 5 11 14 18 16 22 27 28 37 36 33 30 27 25 25 24 25 24 23 22 22 22 23 21 20 18 18 18 16 16 14 16 16 17 17
6 3 5 11 24 10 4 18 23 15 8 14 17 5 3 10 14 19 20 24 27 28 38 36 33 31 27 26 25 25 25 24 23 23 23 23 23 23 21 20 18 18 17 15 14 15 15 15 17
3 3 8 17 21 8 9 24 21 10 17 24 16 3 5 8 15 23 21 25 27 28 39 37 33 31 28 27 25 25 26 27 25 24 24 23 22 23 21 19 20 18 17 15 14 14 14 15 16
3 1 10 11 5 4 5 15 7 9 13 17 16 17 6 13 21 21 25 28 30 26 37 37 34 31 29 28 26 25 25 26 27 25 24 23 23 21 20 20 19 18 16 15 13 12 14 14 17
4 2 5 4 10 13 12 9 7 5 6 16 9 7 6 19 22 25 29 32 30 28 34 38 35 33 31 29 26 25 26 28 27 26 25 23 22 19 20 20 18 17 16 14 12 11 13 16 16
6 2 5 5 2 6 11 8 5 14 8 16 12 8 15 18 24 29 33 36 33 30 32 36 36 35 33 30 28 26 27 28 28 27 25 25 23 22 20 19 18 17 15 13 11 10 13 17 17
3 4 4 5 5 4 12 11 17 8 13 8 14 8 4 16 31 33 39 40 40 38 37 34 37 36 35 32 30 29 28 29 29 28 27 26 24 22 20 19 17 17 15 13 11 12 14 16 17
5 5 6 12 20 19 7 13 12 8 4 3 14 27 19 10 15 39 41 43 45 42 38 36 37 36 36 35 32 30 29 28 29 30 29 27 26 23 22 20 20 18 16 13 13 14 16 18 19
6 12 12 10 15 15 10 14 11 18 19 20 16 23 19 16 18 29 35 39 41 43 40 37 36 38 37 35 33 31 30 29 28 28 29 27 26 24 22 20 19 18 16 14 13 14 16 20 20
7 10 14 19 24 23 22 12 16 27 21 17 14 19 24 26 21 25 31 42 39 40 43 37 36 38 40 37 35 33 30 28 26 26 27 27 26 25 23 21 20 18 16 14 12 15 16 19 19
8 15 20 22 22 18 15 16 17 23 22 22 23 25 25 29 26 22 32 34 38 38 41 37 36 37 41 39 37 34 31 28 26 26 27 28 27 26 23 22 21 20 18 15 12 11 13 15 17
8 13 17 19 15 9 13 12 17 18 33 28 24 24 22 28 26 23 24 40 37 41 42 41 37 36 39 40 36 34 31 29 27 26 26 29 28 25 23 21 23 21 19 16 17 16 15 17 18
6 4 6 14 3 8 7 17 8 18 28 30 28 24 27 27 26 24 19 33 36 41 41 43 39 39 36 38 36 34 32 30 28 27 28 29 27 26 22 25 23 19 19 21 19 17 18 17 19
7 8 9 16 5 8 7 10 7 20 28 27 29 26 24 24 24 22 23 28 33 39 41 43 42 39 37 36 37 33 31 31 29 27 28 30 29 26 24 26 23 26 26 24 22 19 18 18 20
6 7 8 11 1 9 18 17 11 19 17 22 23 18 19 22 26 23 22 26 32 37 39 41 40 40 38 36 36 35 33 31 32 31 30 31 30 29 29 29 27 29 27 26 25 22 21 20 20
15 19 21 19 17 12 18 18 18 14 18 18 23 17 19 16 17 28 25 19 29 34 38 42 43 41 41 39 39 38 36 35 34 33 32 29 31 32 32 32 31 30 30 29 28 25 23 24 24
17 18 19 14 14 10 15 17 16 14 13 20 26 25 20 24 21 15 29 23 22 23 31 44 44 43 41 41 39 39 38 36 34 35 32 31 32 35 33 32 34 32 32 31 32 28 27 27 26
13 16 19 18 14 9 8 22 18 20 20 23 29 32 24 24 25 24 21 32 25 22 30 36 43 43 39 39 39 38 36 34 34 36 36 35 32 33 34 34 33 33 35 34 33 30 29 30 28
14 11 14 17 13 9 8 9 14 8 15 16 23 30 25 24 25 24 19 26 29 27 28 34 36 45 44 44 44 42 43 40 38 38 40 35 33 32 34 36 36 34 34 36 34 32 32 29 34
9 11 12 13 13 11 14 8 12 9 13 17 19 31 30 24 26 25 20 20 29 28 25 32 36 37 44 43 46 46 46 41 38 37 40 37 35 36 36 35 38 35 36 37 36 35 34 32 35
15 13 16 14 7 7 12 10 12 12 21 11 16 28 29 21 23 25 23 20 25 30 30 30 39 41 38 41 44 39 40 36 39 37 40 40 39 39 39 40 39 40 33 38 37 36 35 34 36
1 5 4 4 1 5 3 9 15 10 10 18 18 25 30 27 26 25 26 27 20 25 33 23 34 41 37 38 40 43 41 39 41 40 40 42 41 41 41 40 39 40 38 38 39 38 37 38 38
8 2 2 4 3 3 4 6 5 5 11 20 26 28 26 24 27 28 28 24 17 25 31 31 32 35 37 35 35 38 39 38 38 38 41 42 43 43 40 43 41 39 38 39 40 39 39 40 39
6 10 15 7 4 4 3 5 7 14 19 17 10 19 22 22 19 21 28 28 22 22 20 28 37 34 33 30 31 33 34 36 37 36 37 41 44 41 39 45 42 37 36 40 41 40 41 39 38
4 10 7 4 4 4 2 3 9 25 27 16 7 9 18 22 21 24 25 28 24 15 20 24 33 30 23 25 26 30 26 29 34 37 38 39 45 43 42 45 36 36 36 40 41 41 39 36 33
8 9 5 5 5 3 3 1 14 24 25 10 11 8 8 19 15 16 21 21 19 15 17 23 25 23 21 20 22 26 30 30 31 34 37 39 43 41 43 36 28 32 37 37 33 30 28 22 20
8 14 6 3 5 4 3 3 20 28 20 12 13 17 23 24 20 23 23 23 19 15 13 14 15 14 12 14 20 22 24 26 28 30 33 36 32 30 27 22 25 30 29 25 21 15 14 15 17
Wind_Direction
263 262 266 274 51 239 226 226 263 285 294 232 258 224 189 184 164 204 172 166 167 175 175 175 173 174 176 181 181 175 174 172 170 167 160 158 161 157 149 151 146 144 140 136 133 130 127 124 121
268 240 255 233 205 228 234 220 231 240 236 278 293 200 165 173 150 150 155 172 176 173 176 176 176 176 176 182 183 179 175 174 173 168 159 153 159 161 151 150 149 149 141 138 135 131 130 128 128
253 270 206 185 214 231 233 199 226 252 258 271 261 240 183 177 178 181 168 166 173 174 178 179 179 180 182 184 181 181 179 175 172 163 162 157 156 162 156 158 154 149 142 141 138 132 129 131 134
210 219 254 235 235 250 229 227 227 264 276 275 266 242 200 179 186 181 181 175 174 175 181 181 181 179 182 180 180 181 179 176 176 166 161 160 158 161 156 160 157 153 148 146 138 132 131 136 140
197 225 245 238 242 237 233 239 252 270 300 285 290 245 248 174 177 183 187 179 179 180 184 182 181 179 181 180 179 180 179 171 168 166 160 163 161 160 162 165 159 155 154 147 139 135 137 143 147
227 205 231 240 243 231 239 260 271 275 283 285 298 281 197 206 197 183 191 184 188 183 184 183 182 180 180 180 179 178 179 171 166 167 167 165 164 165 169 167 164 160 155 149 145 143 142 146 158
186 190 236 262 280 296 223 246 254 277 262 273 285 278 231 202 187 196 196 185 186 187 187 185 182 181 180 181 179 179 176 167 168 171 168 169 170 169 169 167 166 163 157 150 150 148 149 153 163
260 191 278 233 251 261 268 287 299 26 277 303 337 225 203 210 184 197 190 187 183 184 192 188 183 181 180 181 180 181 178 171 170 175 171 172 167 171 170 170 168 166 160 160 161 154 154 169 169
235 273 269 260 248 291 327 360 320 319 275 322 300 325 293 192 182 188 186 190 180 182 190 192 186 183 182 181 180 180 178 173 172 176 176 180 171 180 175 173 171 169 169 165 163 160 160 175 176
198 221 252 224 331 306 301 312 315 322 314 306 300 336 344 194 198 192 193 192 186 184 187 194 191 187 183 182 182 182 181 176 175 176 179 185 181 180 178 177 174 172 172 170 175 167 170 178 178
295 253 310 309 306 301 291 302 293 294 289 113 330 315 324 315 217 197 198 202 197 190 186 192 196 191 188 184 184 184 185 185 183 182 183 183 184 181 183 182 179 178 179 185 181 172 170 179 181
328 279 280 290 315 321 312 303 284 263 267 283 292 306 318 300 279 212 204 210 195 194 192 193 196 194 192 189 188 187 187 189 191 191 187 185 182 185 187 187 185 183 186 190 187 180 175 185 193
256 272 296 302 303 296 297 282 280 281 288 288 287 287 291 294 298 243 221 215 207 202 195 194 198 200 196 193 192 192 190 192 193 194 187 187 188 189 190 189 191 188 191 198 204 194 189 197 208
279 307 298 297 285 283 271 269 275 271 290 292 292 292 290 286 286 291 235 216 211 214 204 196 201 204 200 197 197 195 196 196 194 194 192 191 192 193 193 193 191 191 195 199 207 218 217 214 221
287 305 297 279 278 252 273 277 257 291 288 287 283 284 289 287 282 279 249 235 223 219 204 198 196 202 203 203 203 201 199 199 199 198 197 198 198 196 195 195 192 197 201 198 209 228 224 223 227
272 244 279 274 240 248 201 262 273 274 275 279 279 275 279 272 278 275 272 238 223 212 199 198 196 200 201 206 207 205 204 203 203 199 200 203 205 204 202 197 196 202 207 209 214 233 228 224 228
219 267 243 284 209 263 203 277 281 285 262 264 270 273 272 275 260 272 271 249 234 215 199 199 199 200 199 206 209 207 209 208 210 203 202 202 210 206 205 203 204 205 209 216 223 226 234 232 226
240 240 248 257 230 309 293 283 273 280 281 264 275 279 288 263 255 261 264 249 231 219 207 200 201 202 204 206 208 208 210 212 214 217 214 208 213 209 207 207 208 216 220 221 225 229 234 240 237
263 265 270 268 278 277 265 271 275 262 264 277 281 281 283 289 256 233 249 247 227 217 213 209 201 203 205 206 209 208 209 211 215 220 221 215 216 216 210 208 211 219 222 229 233 232 234 236 234
282 293 283 275 272 248 274 276 275 267 254 250 266 272 267 281 277 268 251 243 236 231 219 215 205 203 205 212 212 213 212 212 222 222 223 223 220 219 214 215 216 220 221 228 234 234 233 236 240
266 268 273 269 286 274 278 273 275 263 249 248 254 260 256 257 263 256 251 235 236 234 230 215 212 210 212 215 215 214 214 219 225 219 223 225 224 222 220 220 222 227 228 228 231 237 235 241 245
285 280 278 271 267 264 194 283 266 255 240 240 246 255 251 247 256 259 257 241 228 227 224 223 217 216 220 221 220 219 219 218 219 222 226 227 227 225 224 223 224 230 232 236 237 242 242 243 248
254 307 291 280 259 270 239 252 259 222 237 234 228 242 252 243 249 255 253 246 231 226 222 252 239 223 218 223 221 224 226 226 230 222 225 228 229 230 227 230 229 234 237 235 242 241 243 247 252
270 281 271 257 238 244 228 207 271 223 229 244 235 240 240 233 234 245 246 235 229 221 212 226 236 221 217 220 224 221 219 224 221 227 229 231 230 230 227 230 234 237 239 239 240 242 247 251 253
111 285 308 352 343 231 272 203 250 292 262 233 232 229 230 228 230 234 234 232 219 216 216 219 224 217 219 225 226 229 234 238 239 241 238 234 232 231 234 236 238 241 241 241 239 242 245 249 253
312 286 268 278 227 246 174 240 250 28 336 297 246 232 229 223 226 232 228 226 224 216 214 216 221 226 221 220 225 226 230 235 241 244 242 241 240 241 244 243 247 248 247 245 242 243 246 251 253
341 354 293 257 213 257 217 279 293 354 311 300 258 219 220 221 217 229 221 221 222 213 212 218 220 220 221 226 222 228 234 238 243 244 245 250 248 246 253 250 249 251 252 249 246 248 249 251 251
320 348 325 338 286 268 277 284 348 335 330 337 175 171 210 223 226 220 216 215 220 226 236 223 215 220 224 240 234 232 243 251 254 254 253 259 254 246 258 253 249 253 250 245 243 246 248 248 245
347 346 338 281 259 283 317 74 355 340 327 7 53 98 213 221 215 205 196 202 200 214 226 219 212 215 226 233 229 232 236 237 240 246 253 253 254 250 254 255 250 246 241 241 241 243 243 244 238
15 349 328 264 340 328 284 47 358 345 331 41 61 78 78 104 111 129 145 163 166 176 197 180 188 201 211 225 226 226 231 234 242 249 253 255 254 256 248 239 237 235 234 237 235 232 233 237 247